Details for UPS at WMKK




Go Back


Latest METAR
Local Time

WMKK 250430Z VRB05KT 9999 FEW018 BKN280 34/25 Q1008 NOSIG

25/05/2018, 12:53:16

Description
Results
UPS Logo
Number of Pilots based at WMKK
0 Pilots Based here
Number of UPS Flights Departed from WMKK
0 Flights Departed
Number of UPS Flights Arrived at WMKK
0 Flights Arrived
Number of UPS Schedules Departing from WMKK
7 Schedules
Number of UPS Schedules Arriving at WMKK
7 Schedules
Number of UPS Schedules Departing from WMKK availible today
0 Schedules Today
Number of UPS Schedules Arriving at WMKK availible today
0 Schedules Today
Average Landing Rate at WMKK
-254 fpm
UPS Average Landing Rate at WMKK
0 fpm
Total Fuel Purchased at WMKK by UPS
0.00 kgs / 0.00 lbs

Pilots Based at WMKK


Pilot ID
Pilot Name
Pilot Rank
No. of Flights
No. of Flying Hours
There are no pilots assigned to this hub!   Will you be the first?
Content